ALCOMSAT 1 (43039 NORAD) Tracking and Keplerian Element Data

This shows tracking and keplerian element data for the satellite.

Feedback or suggestion? Click here.




ElementValue
Catalog43039
NameALCOMSAT 1
Epoch Orbit1391
Epoch Day261.86321905
Epoch Year2021
RAAN181.1543
Inclination0.0217
Eccentricity0.0002089
Argument of Perigee359.6851
Mean Anonmoly103.1223
Mean Motion1.00272801
Decay Rate-2.1E-06
L11 43039U 17078A 21261.86321905 -.00000210 00000-0 00000-0 0 9992
L22 43039 0.0217 181.1543 0002089 359.6851 103.1223 1.00272801 13917

Live tracking and technical data element details for ALCOMSAT 1 (NORAD 43039). ALCOMSAT 1 can be tracked NOW for your location showing map with azimuth and elevation plus other details from your city location.

Track the satellite on the map from your city or location and see movement details for azimuth, elevation, latitude, longitude, range, height, and movement on the map or in text.







IsCatalogInMostPopularTable: catalog: 43039, numindb: 590
Update: records affected: 1



GetName: 43039 ALCOMSAT 1

Hit Count: updated at: Fri, 24 Sep 2021 18:28:35 GMT